This is the latest recevied weather packets stored in our database for station/object 9M4RBN-3. If no packets are shown the sender has not sent any weather packets the latest 10 day(s).
| Time | Temp. | Humidity | Pressure | Rain* | Wind** | Luminosity | Snow |
|---|---|---|---|---|---|---|---|
| 1778134005 | 26.67° C | 50% | 1013.3 hPa | - | - | - | - |
| 1778133104 | 26.11° C | 50% | 1013.3 hPa | - | - | - | - |
| 1778132204 | 26.11° C | 52% | 1013.5 hPa | - | - | - | - |
| 1778131304 | 26.11° C | 53% | 1013.8 hPa | - | - | - | - |
| 1778130404 | 26.11° C | 56% | 1014 hPa | - | - | - | - |
| 1778129504 | 26.11° C | 58% | 1014.2 hPa | - | - | - | - |
| 1778128604 | 25.56° C | 52% | 1014.5 hPa | - | - | - | - |
| 1778127704 | 26.67° C | 50% | 1014.5 hPa | - | - | - | - |
| 1778126804 | 26.67° C | 75% | 1014.7 hPa | - | - | - | - |
| 1778125904 | 25.56° C | 56% | 1014.8 hPa | - | - | - | - |
| 1778125004 | 26.11° C | 44% | 1014.8 hPa | - | - | - | - |
| 1778124104 | 26.67° C | 46% | 1014.9 hPa | - | - | - | - |
| 1778123204 | 27.22° C | 60% | 1014.9 hPa | - | - | - | - |
| 1778122304 | 27.78° C | 77% | 1014.9 hPa | - | - | - | - |
| 1778121405 | 27.78° C | 76% | 1015 hPa | - | - | - | - |
| 1778120505 | 27.78° C | 76% | 1014.9 hPa | - | - | - | - |
| 1778119605 | 27.22° C | 76% | 1014.9 hPa | - | - | - | - |
| 1778118705 | 27.22° C | 76% | 1014.9 hPa | - | - | - | - |
| 1778117805 | 27.22° C | 75% | 1014.7 hPa | - | - | - | - |
| 1778116905 | 26.67° C | 73% | 1014.6 hPa | - | - | - | - |
| 1778116005 | 26.67° C | 73% | 1014.5 hPa | - | - | - | - |
| 1778115105 | 26.67° C | 72% | 1014.4 hPa | - | - | - | - |
| 1778114205 | 26.11° C | 71% | 1014.3 hPa | - | - | - | - |
| 1778113305 | 26.11° C | 69% | 1014.1 hPa | - | - | - | - |
| 1778112405 | 25.56° C | 68% | 1014 hPa | - | - | - | - |
* Rain since midnight (hover to see other rain measurements)
** Current wind speed in m/s (hover to see current wind gust speed)